Location: Puketoi
(40.5833°S, 176.0167°E)
Time: 23:20:43
(UTC+00:00)

COSMOS 2455 - Pass Details

Date: 30 September 2023
Orbit: 902 x 907 km, 67.1° (Epoch: 03 December)

Event Time Altitude Azimuth Distance (km) Brightness Sun altitude
Exits shadow 12:53:56 11° 202° (SSW) 2,528 5.5 -45.2°
Drops below altitude 10° 12:54:50 10° 193° (SSW) 2,616 5.7 -45.2°
Sets 12:59:24 0° 162° (SSE) 3,562 6.7 -44.9°
